Change the Weather History Date:

Thursday, May 15, 2014

  Actual Average Record
Temperature  
Mean Temperature 80 °F -  
Max Temperature 93 °F 89 °F 102 °F (2003)
Min Temperature 68 °F 66 °F 35 °F (1999)
Cooling Degree Days 16    
Growing Degree Days 30 (Base 50)    
Moisture  
Dew Point 40 °F    
Average Humidity 22    
Maximum Humidity 53    
Minimum Humidity 7    
Precipitation  
Precipitation 0.00 in 0.00 in - ()
Sea Level Pressure  
Sea Level Pressure 29.88 in    
Wind  
Wind Speed 6 mph ()    
Max Wind Speed 10 mph    
Max Gust Speed -    
Visibility 6.0 miles    
Events      
Averages and records for this station are not official NWS values.
T = Trace of Precipitation, MM = Missing Value Source: Averaged Metar Reports

Daily Weather History Graph

Daily Weather History Graph

Search for Another Location

Airport or City:

Trip Planner

Search our weather history database for the weather conditions in past years. The results will help you decide how hot, cold, wet, or windy it might be!

Date:

Astronomy

May. 15, 2014 Rise Set
Actual Time 5:00 AM EET 6:40 PM EET
Civil Twilight 4:34 AM EET 7:07 PM EET
Nautical Twilight 4:03 AM EET 7:38 PM EET
Astronomical Twilight 3:30 AM EET 8:11 PM EET
Moon 7:28 PM EET (5/15) 5:29 AM EET (5/15)
Length of Visible Light 14h 32m
Length of Day
13h 39m
Waxing Gibbous, 99% of the Moon is Illuminated
May 15
Waxing Gibbous
May 21
Last Quarter
May 28
New
Jun 5
First Quarter
Jun 13
Full

Hourly Weather History & Observations

Time (EET) Temp. Dew Point Humidity Pressure Visibility Wind Dir Wind Speed Gust Speed Precip Events Conditions
12:00 AM 73.4 °F 51.8 °F 47% 29.95 in - ENE 6.9 mph - N/A   Clear
12:30 AM 73.4 °F 51.8 °F 47% 29.95 in - NE 3.5 mph - N/A   Clear
1:00 AM 71.6 °F 51.8 °F 50% 29.95 in - NE 4.6 mph - N/A   Clear
1:30 AM 69.8 °F 51.8 °F 53% 29.95 in - East 5.8 mph - N/A   Clear
2:00 AM 70 °F 51 °F 41% 29.96 in 6 mi East 6.9 mph - -  
2:00 AM 69.8 °F 51.8 °F 53% 29.95 in - East 6.9 mph - N/A   Clear
2:30 AM 69.8 °F 50.0 °F 49% 29.92 in - East 8.1 mph - N/A   Clear
3:00 AM 71.6 °F 44.6 °F 38% 29.92 in - East 10.4 mph - N/A   Clear
3:30 AM 71.6 °F 41.0 °F 33% 29.92 in - East 9.2 mph - N/A   Clear
4:00 AM 71.6 °F 41.0 °F 33% 29.89 in - East 10.4 mph - N/A   Clear
4:30 AM 73.4 °F 41.0 °F 31% 29.89 in - ESE 9.2 mph - N/A   Clear
5:00 AM 72 °F 39 °F 20% 29.92 in 6 mi ESE 9.2 mph - -  
5:00 AM 71.6 °F 39.2 °F 31% 29.89 in - ESE 9.2 mph - N/A   Clear
5:30 AM 75.2 °F 39.2 °F 27% 29.89 in - ESE 9.2 mph - N/A   Clear
6:00 AM 77.0 °F 37.4 °F 24% 29.89 in - ESE 10.4 mph - N/A   Clear
6:30 AM 77.0 °F 37.4 °F 24% 29.89 in - ESE 10.4 mph - N/A   Clear
7:00 AM 80.6 °F 39.2 °F 23% 29.89 in - East 5.8 mph - N/A   Clear
7:30 AM 80.6 °F 39.2 °F 23% 29.89 in - East 5.8 mph - N/A   Clear
8:00 AM 82 °F 38 °F 12% 29.89 in 6 mi ENE 6.9 mph - -   Clear
8:00 AM 82.4 °F 37.4 °F 20% 29.89 in - ENE 6.9 mph - N/A   Clear
8:30 AM 82.4 °F 37.4 °F 20% 29.89 in - ENE 6.9 mph - N/A   Clear
9:00 AM 84.2 °F 37.4 °F 19% 29.89 in - East 4.6 mph - N/A   Clear
9:30 AM 84.2 °F 37.4 °F 19% 29.89 in - East 4.6 mph - N/A   Clear
10:00 AM 86.0 °F 37.4 °F 18% 29.89 in - Calm Calm - N/A   Clear
10:30 AM 86.0 °F 37.4 °F 18% 29.89 in - Calm Calm - N/A   Clear
11:00 AM 88 °F 37 °F 9% 29.88 in 6 mi North 3.5 mph - -   Clear
11:00 AM 87.8 °F 37.4 °F 17% 29.89 in - North 3.5 mph - N/A   Clear
11:30 AM 87.8 °F 37.4 °F 17% 29.89 in - North 3.5 mph - N/A   Clear
12:00 PM 89.6 °F 37.4 °F 16% 29.89 in - NNE 5.8 mph - N/A   Clear
12:30 PM 91.4 °F 35.6 °F 14% 29.89 in - NNE 9.2 mph - N/A   Clear
1:00 PM 91.4 °F 35.6 °F 14% 29.86 in - NNW 3.5 mph - N/A   Clear
1:30 PM 93.2 °F 37.4 °F 14% 29.86 in - NW 3.5 mph - N/A   Clear
2:00 PM 92 °F 38 °F 8% 29.84 in 6 mi NW 8.1 mph - -   Clear
2:00 PM 91.4 °F 37.4 °F 15% 29.83 in - NW 8.1 mph - N/A   Clear
2:30 PM 95.0 °F 33.8 °F 12% 29.83 in - WNW 5.8 mph - N/A   Clear
3:00 PM 93.2 °F 37.4 °F 14% 29.80 in - North 8.1 mph - N/A   Clear
3:30 PM 95.0 °F 37.4 °F 13% 29.83 in - NNW 3.5 mph - N/A   Clear
4:00 PM 93.2 °F 35.6 °F 13% 29.83 in - WNW 8.1 mph - N/A   Clear
4:30 PM 93.2 °F 33.8 °F 12% 29.83 in - WNW 2.3 mph - N/A   Clear
5:00 PM 93 °F 36 °F 7% 29.83 in 6 mi WNW 4.6 mph - -   Clear
5:00 PM 93.2 °F 35.6 °F 13% 29.83 in - WNW 4.6 mph - N/A   Clear
5:30 PM 91.4 °F 37.4 °F 15% 29.83 in - NW 6.9 mph - N/A   Clear
6:00 PM 91.4 °F 37.4 °F 15% 29.83 in - North 5.8 mph - N/A   Clear
6:30 PM 91.4 °F 37.4 °F 15% 29.83 in - NNW 6.9 mph - N/A   Clear
7:00 PM 89.6 °F 37.4 °F 16% 29.83 in - NNE 6.9 mph - N/A   Clear
7:30 PM 89.6 °F 37.4 °F 16% 29.86 in - NNE 6.9 mph - N/A   Clear
8:00 PM 88 °F 38 °F 9% 29.85 in 6 mi NE 5.8 mph - -  
8:00 PM 87.8 °F 37.4 °F 17% 29.86 in - NE 5.8 mph - N/A   Clear
8:30 PM 87.8 °F 42.8 °F 21% 29.86 in - NNW 6.9 mph - N/A   Clear
9:30 PM 86.0 °F 46.4 °F 25% 29.89 in - NNW 6.9 mph - N/A   Clear
10:00 PM 84.2 °F 37.4 °F 19% 29.89 in - ENE 9.2 mph - N/A   Clear
10:30 PM 82.4 °F 37.4 °F 20% 29.89 in - ENE 9.2 mph - N/A   Clear
11:00 PM 82 °F 35 °F 10% 29.88 in 6 mi NE 6.9 mph - -  
11:00 PM 82.4 °F 35.6 °F 19% 29.89 in - NE 6.9 mph - N/A   Clear
11:30 PM 82.4 °F 35.6 °F 19% 29.89 in - NE 6.9 mph - N/A   Clear